[[{"header":{"parameterUnit":"m.s-1","parameterCategory":1,"la1":30.2991,"la2":30.254,"lo1":-89.0895,"lo2":-89.0444,"dx":0.0017,"dy":0.0017,"nx":28,"ny":28,"refTime":"2022-11-16T15:00:00:Z","depth":0,"parameterNumber":2,"parameterNumberName":"U-component_of_WINDS"},"data":[0,0,0,0,0,0,0,0,0,0,0,0,0,0,0,0,0,0,0,0,0,0,0,0,0,0,0,0,0,0,0,0,0,0,0,0,0,0,0,0,0,0,0,0,0,0,0,0,0,0,0,0,0,0,0,0,0,0,1.0103,1.0103,0,1.0075,1.0075,1.0074,1.0063,1.0063,1.0063,1.0064,1.0033,1.0032,1.0031,0,0,0,0,0,0,0,0,0,0,0,0,0,1.0147,1.0146,1.0103,1.0103,1.0103,1.0075,1.0075,1.0074,1.0063,1.0063,1.0063,1.0064,1.0033,1.0032,1.0031,0,0,0,0,0,0,0,0,0,0,0,0,0,1.0124,1.0146,1.0103,1.0094,1.0093,1.0075,1.0075,1.0074,1.0063,1.0063,1.0064,1.0064,1.0034,1.0032,1.0031,1.0021,0,0,1.0027,1.0026,0,0,0,0,0,0,0,0,1.0126,1.0123,1.0096,1.0094,1.0093,1.0073,1.0079,1.0056,1.0063,1.0074,1.0064,1.0064,1.0046,1.0044,1.0038,1.0019,1.0018,1.0027,1.0026,1.0026,1.0025,0,0,0,0,0,0,0,1.0127,1.0124,1.0092,1.0095,1.0094,1.0091,1.0088,1.0075,1.006,1.0073,1.0073,1.0069,1.0045,1.0039,1.0037,1.0017,1.0027,1.0026,1.0025,1.0024,0.9989,0.9989,0,0,0,0,0,0,1.013,1.0125,1.0093,1.0091,1.011,1.009,1.0086,1.0079,1.006,1.0057,1.0069,1.0069,1.0042,1.0039,1.0036,1.0023,1.0026,1.0024,1.0024,0.9989,0.9989,0.9989,0,0,0,0,0,0,1.0131,1.0128,1.0094,1.0108,1.0104,1.0089,1.0081,1.0079,1.0073,1.0057,1.0054,1.0066,1.0042,1.0038,1.0025,1.0022,1.0024,1.0022,0.999,0.9989,0.9989,0.9996,0,0,0,0,0,0,1.0133,1.0128,1.0124,1.0108,1.0103,1.0083,1.0081,1.0078,1.0071,1.007,1.0053,1.005,1.0041,1.0027,1.0024,1.002,1.0021,0.999,0.9989,0.9989,0.9996,0.9996,0.9997,0,0,0,0,0,1.0134,1.0127,1.0124,1.012,1.0097,1.0083,1.008,1.0071,1.007,1.0066,1.0056,1.0051,1.0023,1.0026,1.0022,1.0018,0.999,0.999,0.9989,0.9996,0.9996,0.9997,0,0,0,0,0,0,1.0142,1.0124,1.0121,1.0108,1.0097,1.0081,1.0076,1.0071,1.006,1.0059,1.0047,1.0044,1.0032,1.0023,1.0027,1.0007,1.0006,1.0005,1.0013,1.0013,1.0013,1.0015,1.002,0,0,0,0,0,1.0142,1.0132,1.0117,1.0107,1.0102,1.009,1.0083,1.0077,1.0065,1.006,1.005,1.0038,1.0027,1.0019,1.0008,0.9996,0.9992,0.9991,0.9991,0.9991,0.999,0.9984,0.9983,0.9988,0.9988,0.9988,0,0,1.0142,1.0131,1.0126,1.0109,1.01,1.009,1.0086,1.0075,1.0068,1.0059,1.0046,1.0038,1.0024,1.0011,1.0005,1.0004,0.9988,0.9991,0.9991,0.999,0.9983,0.9983,0.9982,0.9988,0.9988,0.9988,0,0,1.0137,1.0128,1.0119,1.011,1.0097,1.0089,1.0087,1.0072,1.0067,1.0054,1.0047,1.0038,1.0018,1.0009,1.0002,0.9995,0.999,0.9992,0.9992,0.9986,0.9986,0.9985,0.9983,0.9982,0.9991,0.9991,0.9991,0,1.0138,1.0123,1.0115,1.0105,1.0098,1.009,1.0081,1.0073,1.0056,1.0051,1.0051,1.0027,1.0017,1.0003,1.0001,0.9996,0.9993,0.9993,0.9986,0.9986,0.9985,0.9983,0.9982,0.9991,0.9991,0.9991,0.9991,0,1.0126,1.0116,1.011,1.0096,1.0088,1.0078,1.0068,1.0061,1.0056,1.0048,1.0036,1.0024,1.001,1.0007,1.0001,0.9991,0.9991,0.9989,0.9987,0.9985,0.9983,0.9982,0.9992,0.9992,0.9992,0.9992,0,0,1.0124,1.0105,1.0103,1.0097,1.0083,1.0074,1.0065,1.0052,1.0047,1.0036,1.0028,1.0013,1.0011,1.0002,0.9996,0.9991,0.9986,0.9989,0.9988,0.9989,0.9976,0.9977,0.9976,0.9983,0.9983,0.9983,0.9977,0,1.0117,1.0099,1.0092,1.0078,1.0069,1.0062,1.0054,1.0044,1.0037,1.0028,1.002,1.001,1.0008,1.0003,0.9997,0.9988,0.9984,0.9989,0.9975,0.9975,0.9978,0.9975,0.9977,0.9971,0.9976,0.9976,0.9975,0,1.0106,1.0096,1.0081,1.0069,1.0065,1.0058,1.0046,1.0038,1.0027,1.0022,1.0014,1.0008,0.9998,0.9998,0.9984,0.9988,0.9982,0.9977,0.9977,0.9974,0.9975,0.9973,0.9969,0.9968,0.9974,0.9974,0.9974,0,1.0105,1.0089,1.0078,1.0073,1.0058,1.0053,1.0047,1.0036,1.003,1.002,1.0015,1.0004,0.9998,0.9989,0.9981,0.9982,0.9968,0.9967,0.9963,0.9964,0.996,0.996,0.9955,0.9957,0.9957,0.9957,0.9957,0,1.0098,1.0089,1.0078,1.0071,1.0062,1.0053,1.0044,1.0037,1.0028,1.002,1.0014,1.0006,0.9995,0.9987,0.998,0.997,0.9967,0.9963,0.9961,0.9963,0.9963,0.9958,0.9958,0.9957,0.9957,0.9957,0.9957,0,1.0095,1.0087,1.0075,1.0063,1.006,1.0053,1.0043,1.0036,1.0029,1.0019,1.0017,1.0006,0.9995,0.9986,0.9972,0.9968,0.9957,0.9955,0.9961,0.996,0.9957,0.9957,0.9948,0.9946,0.995,0.995,0.995,0,1.0091,1.0084,1.0071,1.0066,1.006,1.0051,1.0045,1.0037,1.003,1.0018,1.0013,1.0003,0.9994,0.9977,0.9968,0.9958,0.9955,0.9953,0.9953,0.9956,0.9955,0.9955,0.9955,0.9952,0.9952,0.9952,0.9952,0,1.0083,1.008,1.0071,1.0062,1.0055,1.0046,1.0038,1.0034,1.0024,1.0017,1.0007,1.0,0.9987,0.9976,0.9965,0.9958,0.9954,0.9953,0.9951,0.9953,0.9956,0.9954,0.9961,0.9952,0.9952,0.9952,0.9952,0.9952,1.0079,1.0074,1.0064,1.0055,1.0048,1.0041,1.0034,1.0027,1.0019,1.0007,1.0003,0.9993,0.9983,0.9968,0.9961,0.9953,0.9952,0.995,0.995,0.9949,0.995,0.9959,0.9951,0.9951,0.9951,0.9951,0.9951,0,1.0072,1.0066,1.0058,1.0046,1.0039,1.0037,1.0028,1.0022,1.0013,1.0005,0.9996,0.9985,0.9975,0.9966,0.9956,0.9951,0.9949,0.9949,0.9949,0.9947,0.9951,0.9953,0.9951,0.9951,0.9951,0.9951,0.9951,0.9951,1.0067,1.0057,1.0053,1.004,1.0034,1.0024,1.0019,1.0013,1.0006,0.9994,0.9986,0.998,0.9972,0.9961,0.9952,0.995,0.9946,0.9946,0.9943,0.9947,0.9947,0.9947,0.9949,0.9946,0.9946,0.994,0.994,0.994]},{"header":{"parameterUnit":"m.s-1","parameterCategory":1,"la1":30.2991,"la2":30.254,"lo1":-89.0895,"lo2":-89.0444,"dx":0.0017,"dy":0.0017,"nx":28,"ny":28,"refTime":"2022-11-16T15:00:00:Z","depth":0,"parameterNumber":3,"parameterNumberName":"V-component_of_WINDS"},"data":[0,0,0,0,0,0,0,0,0,0,0,0,0,0,0,0,0,0,0,0,0,0,0,0,0,0,0,0,0,0,0,0,0,0,0,0,0,0,0,0,0,0,0,0,0,0,0,0,0,0,0,0,0,0,0,0,0,0,-6.2493,-6.2493,0,-6.2575,-6.2576,-6.2577,-6.2546,-6.2545,-6.2543,-6.2541,-6.2619,-6.2623,-6.2627,0,0,0,0,0,0,0,0,0,0,0,0,0,-6.2304,-6.2308,-6.2492,-6.2493,-6.2495,-6.2575,-6.2576,-6.2577,-6.2547,-6.2545,-6.2542,-6.254,-6.2618,-6.2622,-6.2627,0,0,0,0,0,0,0,0,0,0,0,0,0,-6.2386,-6.2309,-6.2492,-6.2489,-6.249,-6.2574,-6.2576,-6.2577,-6.2547,-6.2545,-6.2542,-6.2539,-6.2617,-6.2622,-6.2628,-6.2718,0,0,-6.2645,-6.2648,0,0,0,0,0,0,0,0,-6.2381,-6.2393,-6.2489,-6.249,-6.249,-6.2548,-6.2538,-6.2624,-6.2548,-6.2525,-6.2541,-6.2538,-6.2597,-6.2604,-6.2626,-6.2722,-6.2725,-6.2646,-6.2649,-6.2651,-6.2653,0,0,0,0,0,0,0,-6.2376,-6.2389,-6.2525,-6.249,-6.2491,-6.2482,-6.2491,-6.2554,-6.2575,-6.2527,-6.2525,-6.2536,-6.2597,-6.262,-6.2627,-6.2726,-6.2645,-6.265,-6.2654,-6.2656,-6.2902,-6.2905,0,0,0,0,0,0,-6.2371,-6.2385,-6.2522,-6.2527,-6.2428,-6.2488,-6.2497,-6.2532,-6.2575,-6.2579,-6.2538,-6.2534,-6.2612,-6.2621,-6.263,-6.274,-6.2651,-6.2657,-6.266,-6.2899,-6.2902,-6.2906,0,0,0,0,0,0,-6.2367,-6.2383,-6.2519,-6.2456,-6.2472,-6.2494,-6.2533,-6.2535,-6.2558,-6.2583,-6.2586,-6.2558,-6.261,-6.2622,-6.2697,-6.2742,-6.2659,-6.2665,-6.2895,-6.29,-6.2904,-6.2959,0,0,0,0,0,0,-6.2361,-6.2382,-6.2418,-6.2457,-6.2476,-6.2586,-6.2536,-6.2539,-6.2569,-6.2564,-6.2603,-6.2606,-6.2609,-6.2689,-6.2703,-6.2748,-6.2669,-6.2891,-6.2897,-6.2903,-6.2954,-6.2965,-6.2975,0,0,0,0,0,-6.2355,-6.2428,-6.242,-6.2436,-6.2521,-6.2589,-6.26,-6.2603,-6.2573,-6.2608,-6.2624,-6.2605,-6.2735,-6.2697,-6.2712,-6.276,-6.2888,-6.2895,-6.2902,-6.2949,-6.2963,-6.2975,0,0,0,0,0,0,-6.2391,-6.2433,-6.2424,-6.2513,-6.2548,-6.2584,-6.2629,-6.2618,-6.266,-6.2654,-6.2654,-6.2663,-6.2741,-6.2758,-6.2715,-6.285,-6.2807,-6.2817,-6.2837,-6.2851,-6.2861,-6.2856,-6.2674,0,0,0,0,0,-6.241,-6.2463,-6.2496,-6.2571,-6.259,-6.2606,-6.2636,-6.2636,-6.2671,-6.2685,-6.2707,-6.274,-6.2789,-6.282,-6.2866,-6.2956,-6.2964,-6.2996,-6.3007,-6.3016,-6.3025,-6.3075,-6.309,-6.2929,-6.2929,-6.2929,0,0,-6.2448,-6.2478,-6.2511,-6.2579,-6.2607,-6.2661,-6.2619,-6.2677,-6.2717,-6.2693,-6.2767,-6.2784,-6.2821,-6.2905,-6.2942,-6.2921,-6.3071,-6.3025,-6.3032,-6.3036,-6.3083,-6.3099,-6.3112,-6.2933,-6.2933,-6.2932,0,0,-6.2546,-6.2574,-6.264,-6.2669,-6.2712,-6.2723,-6.2739,-6.2777,-6.2789,-6.2863,-6.2846,-6.2892,-6.2976,-6.3004,-6.3029,-6.3139,-6.3123,-6.3154,-6.3211,-6.3259,-6.3272,-6.3283,-6.3323,-6.3337,-6.3163,-6.3163,-6.3163,0,-6.2588,-6.2671,-6.2675,-6.2736,-6.2767,-6.275,-6.2817,-6.2844,-6.2898,-6.2919,-6.2895,-6.3001,-6.3024,-6.3115,-6.3142,-6.3162,-6.318,-6.315,-6.327,-6.3281,-6.3292,-6.333,-6.3345,-6.3166,-6.3166,-6.3166,-6.3165,0,-6.272,-6.2778,-6.2826,-6.2883,-6.2918,-6.2982,-6.2995,-6.303,-6.3027,-6.304,-6.3116,-6.3144,-6.3196,-6.3217,-6.3213,-6.3307,-6.3293,-6.327,-6.3226,-6.3311,-6.3347,-6.3361,-6.3171,-6.317,-6.3169,-6.3168,0,0,-6.2842,-6.2903,-6.292,-6.2946,-6.2993,-6.3037,-6.3099,-6.3153,-6.3183,-6.3221,-6.3274,-6.3345,-6.3325,-6.3353,-6.3352,-6.3395,-6.3482,-6.3366,-6.3367,-6.3387,-6.3588,-6.3606,-6.3623,-6.3472,-6.3474,-6.3477,-6.3585,0,-6.2945,-6.3058,-6.3064,-6.3165,-6.3219,-6.3205,-6.3259,-6.3293,-6.3307,-6.3353,-6.3367,-6.3419,-6.3387,-6.3405,-6.3446,-6.3462,-6.3522,-6.3454,-6.3519,-6.3521,-6.3511,-6.3641,-6.366,-6.3761,-6.3599,-6.3601,-6.3603,0,-6.3079,-6.3125,-6.3233,-6.3274,-6.3297,-6.3346,-6.3396,-6.3441,-6.3478,-6.3485,-6.3519,-6.3512,-6.3575,-6.3529,-6.3616,-6.357,-6.3597,-6.3609,-6.3613,-6.3619,-6.3568,-6.3652,-6.3793,-6.3809,-6.3625,-6.3623,-6.3622,0,-6.3159,-6.3247,-6.3324,-6.3346,-6.3395,-6.3431,-6.3452,-6.3488,-6.352,-6.3563,-6.3584,-6.3632,-6.3659,-6.3696,-6.3703,-6.3669,-6.379,-6.3744,-6.3797,-6.3797,-6.3823,-6.3822,-6.3972,-6.384,-6.384,-6.3839,-6.3839,0,-6.3273,-6.334,-6.3361,-6.3408,-6.3482,-6.3488,-6.356,-6.3579,-6.3611,-6.3661,-6.365,-6.3696,-6.3702,-6.3749,-6.3754,-6.3826,-6.3837,-6.3844,-6.3845,-6.3846,-6.3845,-6.3864,-6.3857,-6.3843,-6.3842,-6.3842,-6.3841,0,-6.3375,-6.3391,-6.3474,-6.3515,-6.3527,-6.358,-6.3614,-6.3658,-6.3672,-6.3734,-6.3749,-6.377,-6.3825,-6.3836,-6.39,-6.3904,-6.3989,-6.3982,-6.3977,-6.3977,-6.4029,-6.4024,-6.4197,-6.422,-6.4072,-6.4073,-6.4075,0,-6.3447,-6.3498,-6.3546,-6.358,-6.3604,-6.3658,-6.3692,-6.3699,-6.3734,-6.3783,-6.3821,-6.3876,-6.392,-6.4009,-6.4029,-6.4078,-6.4073,-6.413,-6.408,-6.408,-6.4075,-6.4072,-6.4077,-6.4139,-6.4141,-6.4142,-6.4143,0,-6.3573,-6.358,-6.363,-6.3684,-6.3725,-6.3767,-6.3807,-6.3834,-6.3847,-6.3887,-6.3945,-6.398,-6.4047,-6.4102,-6.4152,-6.4172,-6.416,-6.4159,-6.4174,-6.4176,-6.4171,-6.4175,-6.4004,-6.4155,-6.4154,-6.4153,-6.4152,-6.4152,-6.3663,-6.3709,-6.375,-6.3807,-6.3838,-6.3876,-6.3921,-6.3941,-6.399,-6.4048,-6.4049,-6.4112,-6.4149,-6.4215,-6.4239,-6.4288,-6.4269,-6.4291,-6.4296,-6.4302,-6.4307,-6.4163,-6.4296,-6.4296,-6.4296,-6.4295,-6.4295,0,-6.379,-6.3816,-6.3869,-6.3926,-6.3971,-6.3958,-6.4002,-6.4039,-6.4096,-6.4133,-6.4178,-6.4245,-6.4298,-6.4323,-6.4375,-6.4409,-6.4405,-6.4422,-6.442,-6.4425,-6.432,-6.4302,-6.4425,-6.4425,-6.4425,-6.4425,-6.4425,-6.4425,-6.3861,-6.3939,-6.395,-6.4043,-6.4068,-6.4132,-6.4158,-6.4193,-6.4223,-6.4299,-6.4344,-6.4361,-6.4392,-6.4447,-6.4495,-6.4501,-6.4521,-6.4541,-6.4544,-6.4446,-6.4432,-6.442,-6.4403,-6.4545,-6.4545,-6.4645,-6.4646,-6.4647]}]]